Location: Newark
(30.1000°N, 109.4667°E)
Time: 12:45:42
(UTC+00:00)

Envisat - Visible Passes

Search period start: 27 January 2020 00:00
Search period end: 06 February 2020 00:00
Orbit: 764 x 766 km, 98.1° (Epoch: 27 January)

Date Brightness Start Highest point End Pass type
(mag) Time Alt. Az. Time Alt. Az. Time Alt. Az.
27 Jan 4.3 11:10:26 10° S 11:15:14 43° W 11:20:03 10° NNW visible
28 Jan 3.0 10:33:25 10° SSE 10:38:28 75° ENE 10:43:32 10° N visible
28 Jan 4.5 22:48:29 10° NNE 22:53:17 41° E 22:58:02 10° S visible
29 Jan 5.5 11:36:52 10° SSW 11:40:48 23° W 11:44:46 10° NW visible
29 Jan 6.1 22:13:08 10° NE 22:16:20 17° E 22:19:31 10° SE visible
30 Jan 3.8 10:58:57 10° S 11:03:55 57° W 11:08:55 10° NNW visible
31 Jan 6.4 12:04:46 10° WSW 12:06:28 12° W 12:08:10 10° WNW visible
31 Jan 5.1 22:37:27 10° NE 22:41:57 32° E 22:46:26 10° SSE visible
01 Feb 5.1 11:25:04 10° SSW 11:29:28 30° W 11:33:52 10° NW visible
01 Feb 6.3 22:02:51 10° ENE 22:04:58 12° E 22:07:03 10° ESE visible
02 Feb 3.3 10:47:34 10° S 10:52:38 76° WSW 10:57:42 10° NNW visible
02 Feb 3.7 23:02:28 10° NNE 23:07:29 61° E 23:12:28 10° S visible
03 Feb 6.1 11:52:06 10° SW 11:55:06 16° W 11:58:04 10° WNW visible
03 Feb 5.6 22:26:31 10° NE 22:30:37 24° E 22:34:40 10° SSE visible
04 Feb 4.6 11:13:26 10° SSW 11:18:08 39° W 11:22:52 10° NNW visible
05 Feb 4.3 22:51:19 10° NNE 22:56:10 46° E 23:01:01 10° S visible
